Export;EXP-2023-01 (20230707 11:09);;;StationsCode;NL01483;NL01487;NL01488;NL01492;NL01494;NL01496
Periode;20100101 00:00 - 20110101 00:00;;;BeheerderMeetStation;DCMR;DCMR;DCMR;DCMR;DCMR;DCMR
Bron;https://data.rivm.nl/data/luchtmeetnet;;;StationsNaam;Botlek-Spoortunnel;Rotterdam Zuid-Pleinweg;Rotterdam Zuid-Zwartewaalstraat;Rotterdam-Vasteland;Schiedam-Alphons Arienstraat;Hoek v. Holland-Berghaven
Beschrijving data;https://data.rivm.nl/data/luchtmeetnet/readme.pdf;;;Latitude,Longitude;(51.870069,4.318061);(51.891147,4.48069);(51.893617,4.487528);(51.914264,4.479992);(51.921389,4.401389);(51.977803,4.121944)
Accreditatienummer;https://www.rva.nl/alle-geaccrediteerden/;;;StationsGebied;stad;stad;stad;stad;stad;voorstad
;;;;StationsType;industrie;verkeer;achtergrond;verkeer;achtergrond;industrie
;;;;Meetprincipe;Multi-hoek absorptie fotometrie (MAAP);Multi-hoek absorptie fotometrie (MAAP);Multi-hoek absorptie fotometrie (MAAP);Multi-hoek absorptie fotometrie (MAAP);Multi-hoek absorptie fotometrie (MAAP);Multi-hoek absorptie fotometrie (MAAP)
;;;;Meetopstelling;Thermo Scientific 5012 MAAP  ;Thermo Scientific 5012 MAAP  ;Thermo Scientific 5012 MAAP  ;Thermo Scientific 5012 MAAP  ;Thermo Scientific 5012 MAAP  ;Thermo Scientific 5012 MAAP  
;;;;Accreditatienummer;L520;L520;L520;L520;L520;L520
Component;Bep.periode;Eenheid; Begindatumtijd;Einddatumtijd;NL01483;NL01487;NL01488;NL01492;NL01494;NL01496
BC;uur;�g/m�;20100101 00:00;20100101 01:00;2.463;5.74;;3.506;4.086;5.061
BC;uur;�g/m�;20100101 01:00;20100101 02:00;3.413;3.727;2.472;2.699;2.121;7.136
BC;uur;�g/m�;20100101 02:00;20100101 03:00;1.822;2.689;2.275;1.893;1.781;2.862
BC;uur;�g/m�;20100101 03:00;20100101 04:00;1.556;2.403;1.215;1.394;1.473;2.006
BC;uur;�g/m�;20100101 04:00;20100101 05:00;1.446;1.886;1.382;1.342;1.113;1.022
BC;uur;�g/m�;20100101 05:00;20100101 06:00;;;;;;
BC;uur;�g/m�;20100101 06:00;20100101 07:00;1.225;1.24;1.208;1.207;1.003;0.662
BC;uur;�g/m�;20100101 07:00;20100101 08:00;1.096;0.801;0.784;0.702;0.702;0.381
BC;uur;�g/m�;20100101 08:00;20100101 09:00;1.097;0.784;0.804;0.688;0.618;0.382
BC;uur;�g/m�;20100101 09:00;20100101 10:00;0.652;0.644;0.728;0.556;0.594;0.422
BC;uur;�g/m�;20100101 10:00;20100101 11:00;0.788;0.756;0.849;0.632;0.532;0.434
BC;uur;�g/m�;20100101 11:00;20100101 12:00;0.529;0.726;0.669;0.594;0.443;0.342
BC;uur;�g/m�;20100101 12:00;20100101 13:00;0.523;0.739;0.657;0.532;0.672;0.269
BC;uur;�g/m�;20100101 13:00;20100101 14:00;0.454;0.629;0.517;0.486;0.562;0.303
BC;uur;�g/m�;20100101 14:00;20100101 15:00;0.417;0.714;0.506;0.723;0.612;0.269
BC;uur;�g/m�;20100101 15:00;20100101 16:00;0.603;1.393;0.721;0.77;0.814;0.299
BC;uur;�g/m�;20100101 16:00;20100101 17:00;1.436;1.359;1.079;1.362;1.237;0.401
BC;uur;�g/m�;20100101 17:00;20100101 18:00;2.493;5.424;2.662;1.629;1.389;0.907
BC;uur;�g/m�;20100101 18:00;20100101 19:00;4.828;2.971;2.021;2.341;2.301;1.186
BC;uur;�g/m�;20100101 19:00;20100101 20:00;1.88;1.958;1.901;1.512;3.403;1.476
BC;uur;�g/m�;20100101 20:00;20100101 21:00;6.901;1.824;1.746;1.379;3.518;3.424
BC;uur;�g/m�;20100101 21:00;20100101 22:00;2.016;1.58;1.5;2.114;3.862;2.77
BC;uur;�g/m�;20100101 22:00;20100101 23:00;4.069;3.621;1.724;3.122;5.255;2.78
BC;uur;�g/m�;20100101 23:00;20100102 00:00;4.313;5.975;3.16;3.38;3.965;3.342
BC;uur;�g/m�;20100102 00:00;20100102 01:00;3.295;6.63;4.14;3.805;4.677;1.842
BC;uur;�g/m�;20100102 01:00;20100102 02:00;2.389;4.355;3.356;3.314;2.705;0.868
BC;uur;�g/m�;20100102 02:00;20100102 03:00;1.16;1.68;1.35;1.663;1.919;0.906
BC;uur;�g/m�;20100102 03:00;20100102 04:00;0.917;1.021;0.735;1.37;1.947;1.861
BC;uur;�g/m�;20100102 04:00;20100102 05:00;0.371;0.854;0.58;1.367;1.162;0.221
BC;uur;�g/m�;20100102 05:00;20100102 06:00;0.446;0.462;0.189;0.59;0.374;0.355
BC;uur;�g/m�;20100102 06:00;20100102 07:00;0.678;0.887;0.244;0.336;0.452;0.493
BC;uur;�g/m�;20100102 07:00;20100102 08:00;0.688;0.804;0.291;0.537;0.608;0.652
BC;uur;�g/m�;20100102 08:00;20100102 09:00;1.381;1.799;0.751;0.941;0.884;1.469
BC;uur;�g/m�;20100102 09:00;20100102 10:00;2.418;3.952;1.913;1.846;1.839;1.183
BC;uur;�g/m�;20100102 10:00;20100102 11:00;2.542;5.161;2.218;2.191;2.477;0.896
BC;uur;�g/m�;20100102 11:00;20100102 12:00;2.654;3.103;1.262;1.859;1.303;1.197
BC;uur;�g/m�;20100102 12:00;20100102 13:00;3.052;3.134;1.061;1.494;1.485;1.368
BC;uur;�g/m�;20100102 13:00;20100102 14:00;3.584;2.529;1.307;1.787;1.693;1.449
BC;uur;�g/m�;20100102 14:00;20100102 15:00;;2.968;1.54;2.673;2.022;0.752
BC;uur;�g/m�;20100102 15:00;20100102 16:00;4.072;3.725;1.668;2.632;2.187;0.699
BC;uur;�g/m�;20100102 16:00;20100102 17:00;3.471;3.099;1.737;3.136;1.934;0.764
BC;uur;�g/m�;20100102 17:00;20100102 18:00;2.668;2.585;1.636;3.012;1.771;0.655
BC;uur;�g/m�;20100102 18:00;20100102 19:00;2.503;2.419;1.483;2.449;2.025;0.666
BC;uur;�g/m�;20100102 19:00;20100102 20:00;2.509;2.709;1.91;2.762;2.584;0.598
BC;uur;�g/m�;20100102 20:00;20100102 21:00;2.723;2.82;1.913;2.939;2.471;0.492
BC;uur;�g/m�;20100102 21:00;20100102 22:00;2.231;3.171;2.008;2.89;2.275;0.849
BC;uur;�g/m�;20100102 22:00;20100102 23:00;2.218;2.602;1.637;2.415;1.975;0.989
BC;uur;�g/m�;20100102 23:00;20100103 00:00;1.675;3.255;1.414;1.958;1.415;2.04
BC;uur;�g/m�;20100103 00:00;20100103 01:00;1.617;4.234;2.019;1.741;1.601;1.87
BC;uur;�g/m�;20100103 01:00;20100103 02:00;1.632;1.853;1.515;1.417;1.301;1.391
BC;uur;�g/m�;20100103 02:00;20100103 03:00;1.144;1.167;0.885;0.834;0.729;0.557
BC;uur;�g/m�;20100103 03:00;20100103 04:00;0.641;0.554;0.477;0.494;0.433;0.349
BC;uur;�g/m�;20100103 04:00;20100103 05:00;0.797;0.528;0.463;0.506;0.411;0.424
BC;uur;�g/m�;20100103 05:00;20100103 06:00;0.648;0.558;0.453;0.489;0.393;0.409
BC;uur;�g/m�;20100103 06:00;20100103 07:00;0.661;0.841;0.57;0.504;0.522;0.545
BC;uur;�g/m�;20100103 07:00;20100103 08:00;0.915;0.771;0.773;0.575;0.723;0.62
BC;uur;�g/m�;20100103 08:00;20100103 09:00;8.785;0.972;1.021;0.669;0.823;0.601
BC;uur;�g/m�;20100103 09:00;20100103 10:00;10.584;1.038;0.962;0.634;0.918;0.558
BC;uur;�g/m�;20100103 10:00;20100103 11:00;8.424;1.052;1.18;0.864;1.031;0.576
BC;uur;�g/m�;20100103 11:00;20100103 12:00;9.605;1.416;1.345;1.077;1.371;0.556
BC;uur;�g/m�;20100103 12:00;20100103 13:00;4.587;1.233;0.901;1.136;1.33;0.546
BC;uur;�g/m�;20100103 13:00;20100103 14:00;5.566;1.516;1.026;1.617;1.457;0.743
BC;uur;�g/m�;20100103 14:00;20100103 15:00;7.139;1.653;1.125;1.186;1.488;0.949
BC;uur;�g/m�;20100103 15:00;20100103 16:00;7.642;1.594;1.038;1.337;2.115;1.007
BC;uur;�g/m�;20100103 16:00;20100103 17:00;5.935;1.82;1.122;1.509;2.653;1.494
BC;uur;�g/m�;20100103 17:00;20100103 18:00;8.574;2.847;1.52;2.163;3.571;2.022
BC;uur;�g/m�;20100103 18:00;20100103 19:00;6.955;2.661;2.013;2.874;3.898;1.759
BC;uur;�g/m�;20100103 19:00;20100103 20:00;4.588;3.764;2.341;3.553;5.828;2.147
BC;uur;�g/m�;20100103 20:00;20100103 21:00;5.8;7.582;3.547;5.534;7.536;2.704
BC;uur;�g/m�;20100103 21:00;20100103 22:00;5.244;8.444;5.147;3.505;5.324;3.752
BC;uur;�g/m�;20100103 22:00;20100103 23:00;6.001;7.007;4.428;3.365;4.936;2.17
BC;uur;�g/m�;20100103 23:00;20100104 00:00;3.956;5.56;4;3.319;3.477;1.435
BC;uur;�g/m�;20100104 00:00;20100104 01:00;2.476;3.491;2.766;2.427;2.664;1.293
BC;uur;�g/m�;20100104 01:00;20100104 02:00;2.657;3.262;2.666;2.549;2.956;1.427
BC;uur;�g/m�;20100104 02:00;20100104 03:00;2.213;2.967;2.337;2.337;2.774;1.455
BC;uur;�g/m�;20100104 03:00;20100104 04:00;2.498;2.671;2.139;2.062;2.599;1.577
BC;uur;�g/m�;20100104 04:00;20100104 05:00;3.078;3.128;2.667;2.723;2.768;1.531
BC;uur;�g/m�;20100104 05:00;20100104 06:00;4.659;3.628;3.083;3.148;3.003;1.427
BC;uur;�g/m�;20100104 06:00;20100104 07:00;8.516;3.673;2.539;3.389;2.72;1.7
BC;uur;�g/m�;20100104 07:00;20100104 08:00;8.537;3.409;2.123;3.572;2.93;1.567
BC;uur;�g/m�;20100104 08:00;20100104 09:00;;7.834;2.457;4.452;3.671;1.647
BC;uur;�g/m�;20100104 09:00;20100104 10:00;7.414;5.343;2.424;3.336;3.137;
BC;uur;�g/m�;20100104 10:00;20100104 11:00;6.082;4.107;2.35;3.257;3.1;1.918
BC;uur;�g/m�;20100104 11:00;20100104 12:00;5.965;4.387;2.239;3.401;4.17;1.765
BC;uur;�g/m�;20100104 12:00;20100104 13:00;5.767;4.582;2.114;3.586;2.826;1.769
BC;uur;�g/m�;20100104 13:00;20100104 14:00;5.857;4.666;2.172;2.693;2.855;1.142
BC;uur;�g/m�;20100104 14:00;20100104 15:00;5.901;5.107;2.827;3.225;2.835;1.161
BC;uur;�g/m�;20100104 15:00;20100104 16:00;6.046;6.855;3.196;3.87;2.632;0.655
BC;uur;�g/m�;20100104 16:00;20100104 17:00;6.65;6.5;3.372;4.19;3.116;0.06
BC;uur;�g/m�;20100104 17:00;20100104 18:00;6.402;7.21;3.244;3.58;3.311;0.322
BC;uur;�g/m�;20100104 18:00;20100104 19:00;5.334;6.565;3.418;3.377;3.279;0.405
BC;uur;�g/m�;20100104 19:00;20100104 20:00;7.004;5.291;3.113;3.223;3.05;0.831
BC;uur;�g/m�;20100104 20:00;20100104 21:00;6.036;3.767;2.685;3.381;3.293;5.653
BC;uur;�g/m�;20100104 21:00;20100104 22:00;3.369;3.221;2.3;3.486;3.083;0.74
BC;uur;�g/m�;20100104 22:00;20100104 23:00;3.238;2.524;2.071;2.327;3.158;2.049
BC;uur;�g/m�;20100104 23:00;20100105 00:00;1.758;3.618;2.157;3.801;3.259;0.529
BC;uur;�g/m�;20100105 00:00;20100105 01:00;4.732;4.786;1.909;2.361;1.353;0.503
BC;uur;�g/m�;20100105 01:00;20100105 02:00;1.219;1.783;1.781;2.546;1.272;0.941
BC;uur;�g/m�;20100105 02:00;20100105 03:00;0.841;1.108;0.805;2.405;1.247;1.104
BC;uur;�g/m�;20100105 03:00;20100105 04:00;1.085;1.025;0.736;2.02;1.896;0.656
BC;uur;�g/m�;20100105 04:00;20100105 05:00;1.596;1.025;0.829;1.676;4.331;0.761
BC;uur;�g/m�;20100105 05:00;20100105 06:00;3.674;1.938;1.038;1.676;2.364;0.99
BC;uur;�g/m�;20100105 06:00;20100105 07:00;8.22;4.043;1.555;2.322;2.259;0.82
BC;uur;�g/m�;20100105 07:00;20100105 08:00;9.986;3.539;1.995;2.804;3.168;1.197
BC;uur;�g/m�;20100105 08:00;20100105 09:00;8.489;4.021;2.318;3.834;3.261;1.367
BC;uur;�g/m�;20100105 09:00;20100105 10:00;7.528;3.752;2.769;3.844;3.049;1.229
BC;uur;�g/m�;20100105 10:00;20100105 11:00;7.192;5.191;3.605;4.633;3.269;2.396
BC;uur;�g/m�;20100105 11:00;20100105 12:00;8.176;5.119;3.606;4.764;3.786;2.618
BC;uur;�g/m�;20100105 12:00;20100105 13:00;6.739;4.384;3.115;4.429;3.381;2.027
BC;uur;�g/m�;20100105 13:00;20100105 14:00;9.182;4.366;2.695;4.474;3.016;1.977
BC;uur;�g/m�;20100105 14:00;20100105 15:00;7.846;7.124;3.389;4.295;3.113;2.652
BC;uur;�g/m�;20100105 15:00;20100105 16:00;9.351;9.623;4.306;4.707;4.511;2.183
BC;uur;�g/m�;20100105 16:00;20100105 17:00;10.204;10.645;5.022;5.209;5.502;3.391
BC;uur;�g/m�;20100105 17:00;20100105 18:00;8.867;11.273;5.303;5.158;5.507;3.575
BC;uur;�g/m�;20100105 18:00;20100105 19:00;7.342;10.57;5.382;5.627;5.465;3.966
BC;uur;�g/m�;20100105 19:00;20100105 20:00;6.435;9.198;6.094;5.992;5.439;4.772
BC;uur;�g/m�;20100105 20:00;20100105 21:00;6.371;8.161;5.785;5.909;5.245;5.189
BC;uur;�g/m�;20100105 21:00;20100105 22:00;6.534;7.881;5.7;5.324;5.032;5.758
BC;uur;�g/m�;20100105 22:00;20100105 23:00;6.514;7.799;5.783;5.282;5.351;4.558
BC;uur;�g/m�;20100105 23:00;20100106 00:00;6.319;6.995;5.668;5.148;5.679;4.627
BC;uur;�g/m�;20100106 00:00;20100106 01:00;5.509;7.108;6.213;5.174;5.46;4.493
BC;uur;�g/m�;20100106 01:00;20100106 02:00;4.48;6.133;5.637;5.178;4.507;4.369
BC;uur;�g/m�;20100106 02:00;20100106 03:00;3.686;4.831;4.475;4.194;3.922;3.849
BC;uur;�g/m�;20100106 03:00;20100106 04:00;3.424;4.048;3.692;3.477;3.439;4.201
BC;uur;�g/m�;20100106 04:00;20100106 05:00;3.537;3.797;3.045;2.892;2.849;3.391
BC;uur;�g/m�;20100106 05:00;20100106 06:00;4.858;4.019;2.772;2.767;3.076;3.005
BC;uur;�g/m�;20100106 06:00;20100106 07:00;10.215;7.933;3.053;3.509;3.503;2.774
BC;uur;�g/m�;20100106 07:00;20100106 08:00;8.605;7.867;3.606;3.782;4.057;4.135
BC;uur;�g/m�;20100106 08:00;20100106 09:00;8.866;10.439;4.217;4.138;4.267;3.315
BC;uur;�g/m�;20100106 09:00;20100106 10:00;8.547;8.816;4.136;3.859;4.972;2.633
BC;uur;�g/m�;20100106 10:00;20100106 11:00;7.277;9.526;4.602;4.444;4.676;2.487
BC;uur;�g/m�;20100106 11:00;20100106 12:00;7.179;6.872;4.095;4.96;4.593;2.513
BC;uur;�g/m�;20100106 12:00;20100106 13:00;7.05;6.603;3.223;4.455;3.659;2.024
BC;uur;�g/m�;20100106 13:00;20100106 14:00;7.539;5.227;2.758;4.171;3.303;1.857
BC;uur;�g/m�;20100106 14:00;20100106 15:00;7.854;4.63;2.586;3.832;3.485;2.015
BC;uur;�g/m�;20100106 15:00;20100106 16:00;8.66;5.04;2.437;3.896;2.723;2.018
BC;uur;�g/m�;20100106 16:00;20100106 17:00;8.709;6.903;2.648;3.803;3.174;2.56
BC;uur;�g/m�;20100106 17:00;20100106 18:00;9.684;5.876;2.829;4.05;3.293;2.475
BC;uur;�g/m�;20100106 18:00;20100106 19:00;5.821;6.784;2.571;2.991;2.916;2.23
BC;uur;�g/m�;20100106 19:00;20100106 20:00;4.162;7.131;2.484;2.7;2.701;2.322
BC;uur;�g/m�;20100106 20:00;20100106 21:00;4.388;6.629;2.989;3.092;3.254;2.603
BC;uur;�g/m�;20100106 21:00;20100106 22:00;4.6;5.601;3.412;3.842;3.437;2.528
BC;uur;�g/m�;20100106 22:00;20100106 23:00;4.204;5.463;3.769;3.877;3.161;2.968
BC;uur;�g/m�;20100106 23:00;20100107 00:00;4.033;4.371;3.7;3.777;3.189;2.523
BC;uur;�g/m�;20100107 00:00;20100107 01:00;3.593;3.74;3.233;3.57;3.088;2.535
BC;uur;�g/m�;20100107 01:00;20100107 02:00;3.091;3.253;2.894;3.188;2.975;2.129
BC;uur;�g/m�;20100107 02:00;20100107 03:00;2.415;2.887;2.419;2.656;2.449;1.986
BC;uur;�g/m�;20100107 03:00;20100107 04:00;2.697;2.702;2.189;2.712;2.62;1.833
BC;uur;�g/m�;20100107 04:00;20100107 05:00;3.002;3.118;2.426;2.663;2.429;2.118
BC;uur;�g/m�;20100107 05:00;20100107 06:00;5.502;5.44;3.593;3.117;3.177;2.82
BC;uur;�g/m�;20100107 06:00;20100107 07:00;9.433;9.06;4.571;4.51;4.436;3.719
BC;uur;�g/m�;20100107 07:00;20100107 08:00;10.034;10.107;6.21;6.729;6.408;3.562
BC;uur;�g/m�;20100107 08:00;20100107 09:00;9.589;10.653;6.746;6.611;7.055;4.364
BC;uur;�g/m�;20100107 09:00;20100107 10:00;9.545;9.756;6.221;7.087;7.374;5.093
BC;uur;�g/m�;20100107 10:00;20100107 11:00;9.681;9.839;4.457;5.203;6.459;4.289
BC;uur;�g/m�;20100107 11:00;20100107 12:00;8.403;9.291;4.079;4.482;5.664;3.71
BC;uur;�g/m�;20100107 12:00;20100107 13:00;7.009;9.433;4.566;5.249;5.148;3.398
BC;uur;�g/m�;20100107 13:00;20100107 14:00;6.862;9.824;4.408;4.534;5.063;3.382
BC;uur;�g/m�;20100107 14:00;20100107 15:00;8.7;10.597;4.267;5.551;4.747;3.671
BC;uur;�g/m�;20100107 15:00;20100107 16:00;9.446;10.604;4.957;6.119;5.486;3.193
BC;uur;�g/m�;20100107 16:00;20100107 17:00;11.297;11.568;4.696;5.556;6.3;3.977
BC;uur;�g/m�;20100107 17:00;20100107 18:00;10.838;11.086;4.949;6.066;5.862;6.045
BC;uur;�g/m�;20100107 18:00;20100107 19:00;10.364;9.392;5.354;6.529;6.326;7.113
BC;uur;�g/m�;20100107 19:00;20100107 20:00;8.996;8.043;4.823;4.88;5.082;7.395
BC;uur;�g/m�;20100107 20:00;20100107 21:00;7.714;8.912;5.56;4.694;4.679;6.596
BC;uur;�g/m�;20100107 21:00;20100107 22:00;6.01;6.154;4.209;4.335;4.487;5.73
BC;uur;�g/m�;20100107 22:00;20100107 23:00;5.474;5.35;5.27;4.437;5.483;5.844
BC;uur;�g/m�;20100107 23:00;20100108 00:00;5.109;4.954;4.218;4.692;5.806;4.895
BC;uur;�g/m�;20100108 00:00;20100108 01:00;4.432;4.984;4.226;4.794;5.051;3.708
BC;uur;�g/m�;20100108 01:00;20100108 02:00;4.439;4.825;4.138;4.354;6.575;3.883
BC;uur;�g/m�;20100108 02:00;20100108 03:00;5.031;4.4;4.093;3.413;5.115;3.821
BC;uur;�g/m�;20100108 03:00;20100108 04:00;4.965;3.803;3.479;3.289;5.386;3.816
BC;uur;�g/m�;20100108 04:00;20100108 05:00;5.287;4.112;3.707;3.907;6.267;4.198
BC;uur;�g/m�;20100108 05:00;20100108 06:00;6.089;3.965;3.282;3.885;6.674;3.906
BC;uur;�g/m�;20100108 06:00;20100108 07:00;5.565;4.318;3.193;3.518;7.17;4.074
BC;uur;�g/m�;20100108 07:00;20100108 08:00;5.408;3.292;2.711;3.286;4.635;3.397
BC;uur;�g/m�;20100108 08:00;20100108 09:00;2.688;2.965;2.276;2.939;3.708;2.274
BC;uur;�g/m�;20100108 09:00;20100108 10:00;3.12;2.77;1.947;2.994;3.745;1.646
BC;uur;�g/m�;20100108 10:00;20100108 11:00;3.142;2.722;1.93;2.578;3.408;1.737
BC;uur;�g/m�;20100108 11:00;20100108 12:00;2.725;2.929;2.182;2.651;3.791;1.946
BC;uur;�g/m�;20100108 12:00;20100108 13:00;2.732;3.014;2.262;2.411;3.153;2.024
BC;uur;�g/m�;20100108 13:00;20100108 14:00;3.106;2.604;1.829;2.015;2.881;1.828
BC;uur;�g/m�;20100108 14:00;20100108 15:00;2.504;2.445;1.665;2.462;2.896;1.634
BC;uur;�g/m�;20100108 15:00;20100108 16:00;2.459;2.901;2.022;2.799;3.102;1.933
BC;uur;�g/m�;20100108 16:00;20100108 17:00;2.49;3.16;2.283;2.583;3.391;1.945
BC;uur;�g/m�;20100108 17:00;20100108 18:00;2.47;3.076;2.38;2.667;3.556;1.81
BC;uur;�g/m�;20100108 18:00;20100108 19:00;2.57;3.246;2.372;2.44;3.557;1.526
BC;uur;�g/m�;20100108 19:00;20100108 20:00;2.504;2.951;2.077;2.228;2.899;1.958
BC;uur;�g/m�;20100108 20:00;20100108 21:00;1.808;2.08;1.522;1.671;2.176;1.798
BC;uur;�g/m�;20100108 21:00;20100108 22:00;1.345;1.664;1.274;1.441;1.65;1.304
BC;uur;�g/m�;20100108 22:00;20100108 23:00;1.473;1.801;1.404;1.639;1.585;1.186
BC;uur;�g/m�;20100108 23:00;20100109 00:00;1.594;1.557;1.171;1.333;1.745;1.049
BC;uur;�g/m�;20100109 00:00;20100109 01:00;1.435;1.153;0.902;1.056;1.188;0.942
BC;uur;�g/m�;20100109 01:00;20100109 02:00;1.225;0.903;0.748;0.723;0.748;0.649
BC;uur;�g/m�;20100109 02:00;20100109 03:00;1.209;0.591;0.489;0.529;0.59;0.505
BC;uur;�g/m�;20100109 03:00;20100109 04:00;1.092;0.562;0.45;0.488;0.567;0.424
BC;uur;�g/m�;20100109 04:00;20100109 05:00;0.901;0.555;0.461;0.526;0.559;0.46
BC;uur;�g/m�;20100109 05:00;20100109 06:00;0.778;0.524;0.448;0.445;0.525;0.48
BC;uur;�g/m�;20100109 06:00;20100109 07:00;0.65;0.538;0.427;0.469;0.546;0.437
BC;uur;�g/m�;20100109 07:00;20100109 08:00;0.813;0.571;0.426;0.486;0.65;0.401
BC;uur;�g/m�;20100109 08:00;20100109 09:00;0.799;0.595;0.444;0.556;0.831;0.502
BC;uur;�g/m�;20100109 09:00;20100109 10:00;0.856;0.842;0.537;0.683;0.89;0.605
BC;uur;�g/m�;20100109 10:00;20100109 11:00;1.043;0.986;0.6;0.831;1.149;0.557
BC;uur;�g/m�;20100109 11:00;20100109 12:00;1.164;0.995;0.631;0.854;1.133;0.591
BC;uur;�g/m�;20100109 12:00;20100109 13:00;1.01;1.434;0.679;0.967;1.479;0.488
BC;uur;�g/m�;20100109 13:00;20100109 14:00;0.926;1.285;0.725;0.884;1.244;0.497
BC;uur;�g/m�;20100109 14:00;20100109 15:00;0.943;1.273;0.738;0.827;1.138;0.493
BC;uur;�g/m�;20100109 15:00;20100109 16:00;0.935;1.317;0.714;0.873;1.334;0.511
BC;uur;�g/m�;20100109 16:00;20100109 17:00;1.149;1.287;0.75;0.881;1.272;0.529
BC;uur;�g/m�;20100109 17:00;20100109 18:00;1.539;1.406;0.785;1.009;1.366;0.583
BC;uur;�g/m�;20100109 18:00;20100109 19:00;2.191;1.155;0.859;0.858;1.209;0.642
BC;uur;�g/m�;20100109 19:00;20100109 20:00;1.466;1.09;0.736;0.789;0.932;0.659
BC;uur;�g/m�;20100109 20:00;20100109 21:00;1.258;0.887;0.662;0.649;0.779;0.63
BC;uur;�g/m�;20100109 21:00;20100109 22:00;0.788;0.854;0.597;0.688;0.724;0.611
BC;uur;�g/m�;20100109 22:00;20100109 23:00;0.916;0.842;0.54;0.578;0.627;0.513
BC;uur;�g/m�;20100109 23:00;20100110 00:00;1.046;0.704;0.531;0.533;0.609;0.409
BC;uur;�g/m�;20100110 00:00;20100110 01:00;0.827;0.649;0.343;0.574;0.483;0.34
BC;uur;�g/m�;20100110 01:00;20100110 02:00;0.648;0.541;0.337;0.514;0.382;0.337
BC;uur;�g/m�;20100110 02:00;20100110 03:00;0.683;0.444;0.283;0.397;0.372;0.332
BC;uur;�g/m�;20100110 03:00;20100110 04:00;0.673;0.422;0.268;0.394;0.289;0.252
BC;uur;�g/m�;20100110 04:00;20100110 05:00;0.476;0.361;0.18;0.361;0.263;0.225
BC;uur;�g/m�;20100110 05:00;20100110 06:00;0.62;0.312;0.213;0.443;0.273;0.208
BC;uur;�g/m�;20100110 06:00;20100110 07:00;0.566;0.341;0.224;0.299;0.26;0.204
BC;uur;�g/m�;20100110 07:00;20100110 08:00;0.624;0.341;0.177;0.302;0.291;0.24
BC;uur;�g/m�;20100110 08:00;20100110 09:00;0.655;0.357;0.213;0.331;0.403;0.245
BC;uur;�g/m�;20100110 09:00;20100110 10:00;0.668;0.423;0.498;0.37;0.566;0.262
BC;uur;�g/m�;20100110 10:00;20100110 11:00;0.702;0.707;0.565;0.625;0.619;0.226
BC;uur;�g/m�;20100110 11:00;20100110 12:00;1.014;1.065;0.908;1.179;1.085;0.421
BC;uur;�g/m�;20100110 12:00;20100110 13:00;1.441;1.301;1.052;1.524;1.424;0.689
BC;uur;�g/m�;20100110 13:00;20100110 14:00;1.399;1.803;1.165;1.327;1.584;0.588
BC;uur;�g/m�;20100110 14:00;20100110 15:00;1.151;1.593;1.197;1.421;1.541;0.693
BC;uur;�g/m�;20100110 15:00;20100110 16:00;1.59;1.697;1.172;1.464;1.613;0.618
BC;uur;�g/m�;20100110 16:00;20100110 17:00;1.545;1.698;1.164;1.447;1.835;0.728
BC;uur;�g/m�;20100110 17:00;20100110 18:00;1.699;1.642;1.257;1.748;2.031;0.889
BC;uur;�g/m�;20100110 18:00;20100110 19:00;1.323;2.011;1.325;1.985;1.693;0.979
BC;uur;�g/m�;20100110 19:00;20100110 20:00;1.532;2.224;1.354;1.962;1.87;1.166
BC;uur;�g/m�;20100110 20:00;20100110 21:00;1.609;1.813;1.403;2.018;1.809;1.142
BC;uur;�g/m�;20100110 21:00;20100110 22:00;1.781;1.795;1.451;1.83;1.573;1.109
BC;uur;�g/m�;20100110 22:00;20100110 23:00;1.746;1.751;1.393;2.054;1.72;1.118
BC;uur;�g/m�;20100110 23:00;20100111 00:00;1.63;1.729;1.368;2.074;2.05;1.192
BC;uur;�g/m�;20100111 00:00;20100111 01:00;1.523;1.457;1.232;1.522;1.609;1.014
BC;uur;�g/m�;20100111 01:00;20100111 02:00;1.412;1.245;1.114;1.159;1.326;0.897
BC;uur;�g/m�;20100111 02:00;20100111 03:00;1.231;1.058;0.976;1.098;0.998;0.782
BC;uur;�g/m�;20100111 03:00;20100111 04:00;1.253;0.891;0.867;0.987;0.884;0.705
BC;uur;�g/m�;20100111 04:00;20100111 05:00;1.154;0.936;0.751;0.792;0.9;0.659
BC;uur;�g/m�;20100111 05:00;20100111 06:00;2.487;1.238;0.824;0.858;1.274;0.649
BC;uur;�g/m�;20100111 06:00;20100111 07:00;1.812;1.523;0.899;1.164;1.579;0.418
BC;uur;�g/m�;20100111 07:00;20100111 08:00;2.315;1.507;0.841;1.837;2.542;0.568
BC;uur;�g/m�;20100111 08:00;20100111 09:00;2.818;1.487;0.977;2.129;2.496;0.716
BC;uur;�g/m�;20100111 09:00;20100111 10:00;3.811;1.858;1.128;3.065;2.632;1.09
BC;uur;�g/m�;20100111 10:00;20100111 11:00;3.614;1.911;1.276;2.801;2.766;1.101
BC;uur;�g/m�;20100111 11:00;20100111 12:00;3.109;2.256;1.469;;2.339;1.004
BC;uur;�g/m�;20100111 12:00;20100111 13:00;2.302;2.449;1.385;;2.489;1.003
BC;uur;�g/m�;20100111 13:00;20100111 14:00;2.432;1.956;1.395;2.138;2.417;1.171
BC;uur;�g/m�;20100111 14:00;20100111 15:00;2.948;2.942;1.783;2.512;2.841;0.955
BC;uur;�g/m�;20100111 15:00;20100111 16:00;2.437;2.904;1.793;2.32;3.175;1.154
BC;uur;�g/m�;20100111 16:00;20100111 17:00;2.743;3.119;1.864;2.037;3.432;1.566
BC;uur;�g/m�;20100111 17:00;20100111 18:00;2.902;3.167;2.121;2.166;4.41;2.186
BC;uur;�g/m�;20100111 18:00;20100111 19:00;2.007;2.893;2.005;2.134;2.725;2.253
BC;uur;�g/m�;20100111 19:00;20100111 20:00;2.71;2.442;1.832;1.805;2.24;1.961
BC;uur;�g/m�;20100111 20:00;20100111 21:00;2.911;2.237;1.773;1.878;2.008;1.488
BC;uur;�g/m�;20100111 21:00;20100111 22:00;2.855;1.549;1.32;1.69;1.87;1.298
BC;uur;�g/m�;20100111 22:00;20100111 23:00;1.917;1.773;1.42;1.548;1.618;1.038
BC;uur;�g/m�;20100111 23:00;20100112 00:00;2.761;1.646;1.278;2.347;1.736;1.003
BC;uur;�g/m�;20100112 00:00;20100112 01:00;3.045;1.518;1.275;0.947;1.336;0.811
BC;uur;�g/m�;20100112 01:00;20100112 02:00;1.808;1.121;1.134;1.048;1.127;0.911
BC;uur;�g/m�;20100112 02:00;20100112 03:00;2.269;1.083;1.072;0.926;1.039;1.127
BC;uur;�g/m�;20100112 03:00;20100112 04:00;2.032;1.187;1.103;1.03;1.525;1.315
BC;uur;�g/m�;20100112 04:00;20100112 05:00;2.118;1.49;1.262;1.471;1.578;1.107
BC;uur;�g/m�;20100112 05:00;20100112 06:00;4.997;2.023;1.01;1.325;1.878;1.29
BC;uur;�g/m�;20100112 06:00;20100112 07:00;9.694;3.529;1.163;3.101;2.219;1.434
BC;uur;�g/m�;20100112 07:00;20100112 08:00;8.584;3.735;1.583;3.961;2.575;1.376
BC;uur;�g/m�;20100112 08:00;20100112 09:00;7.477;5.172;2.154;3.921;3.072;1.752
BC;uur;�g/m�;20100112 09:00;20100112 10:00;7.776;6.705;2.729;3.925;3.071;2.388
BC;uur;�g/m�;20100112 10:00;20100112 11:00;6.298;6.04;2.694;3.373;3.345;3.353
BC;uur;�g/m�;20100112 11:00;20100112 12:00;6.673;6.668;1.896;2.805;2.749;3.352
BC;uur;�g/m�;20100112 12:00;20100112 13:00;5.311;5.445;1.714;2.431;2.175;2.811
BC;uur;�g/m�;20100112 13:00;20100112 14:00;5.585;5.227;2.187;2.993;2.265;2.429
BC;uur;�g/m�;20100112 14:00;20100112 15:00;7.375;5.769;3.182;3.669;3.563;2.452
BC;uur;�g/m�;20100112 15:00;20100112 16:00;7.471;4.859;2.729;3.516;3.471;3.454
BC;uur;�g/m�;20100112 16:00;20100112 17:00;7.886;5.478;2.903;3.725;3.579;2.813
BC;uur;�g/m�;20100112 17:00;20100112 18:00;7.52;6.132;3.505;4.206;3.875;2.96
BC;uur;�g/m�;20100112 18:00;20100112 19:00;5.657;6.023;3.833;4.292;4.01;3.936
BC;uur;�g/m�;20100112 19:00;20100112 20:00;4.862;4.764;3.493;3.883;3.729;3.387